Weather History for Wright-Patt AFB, OH

Change the Weather History Date:

Thursday, November 22, 2012

  Actual Average Record
Temperature  
Mean Temperature 47 °F -  
Max Temperature 63 °F 48 °F 69 °F (1999)
Min Temperature 31 °F 31 °F 14 °F (2000)
Degree Days  
Heating Degree Days 18    
Moisture  
Dew Point 36 °F    
Average Humidity 70    
Maximum Humidity 94    
Minimum Humidity 43    
Precipitation  
Precipitation 0.00 in - - ()
Sea Level Pressure  
Sea Level Pressure 30.15 in    
Wind  
Wind Speed 3 mph (South)    
Max Wind Speed 16 mph    
Max Gust Speed 24 mph    
Visibility 8 miles    
Events Fog    
Averages and records for this station are not official NWS values.
T = Trace of Precipitation, MM = Missing Value Source: NWS Daily Summary

Daily Weather History Graph

Daily Weather History Graph

Search for Another Location

Airport:

Trip Planner

Search our weather history database for the weather conditions in past years. The results will help you decide how hot, cold, wet, or windy it might be!

Date:

Astronomy

Nov. 22, 2012 Rise Set
Actual Time 7:29 AM EST 5:15 PM EST
Civil Twilight 6:59 AM EST 5:44 PM EST
Nautical Twilight 6:26 AM EST 6:17 PM EST
Astronomical Twilight 5:54 AM EST 6:50 PM EST
Moon 2:00 PM EST 1:48 AM EST
Length of Visible Light 10h 44m
Length of Day
9h 45m
Waxing Gibbous, 71% of the Moon is Illuminated
Nov 22
Waxing Gibbous
Nov 28
Full
Dec 6
Last Quarter
Dec 13
New
Dec 20
First Quarter

Hourly Weather History & Observations

Time (EST) Temp. Dew Point Humidity Pressure Visibility Wind Dir Wind Speed Gust Speed Precip Events Conditions
12:01 AM 37.4 °F 33.8 °F 87% 30.22 in 8.0 mi Calm Calm - N/A   Clear
12:55 AM 36.9 °F 32.7 °F 85% 30.22 in 10.0 mi Calm Calm - N/A   Clear
1:55 AM 35.1 °F 31.8 °F 88% 30.22 in 6.0 mi Calm Calm - N/A   Clear
2:55 AM 34.5 °F 31.1 °F 87% 30.23 in 10.0 mi Calm Calm - N/A Fog Shallow Fog
3:55 AM 33.8 °F 30.9 °F 89% 30.21 in 10.0 mi Calm Calm - N/A Fog Shallow Fog
4:55 AM 33.6 °F 31.5 °F 92% 30.22 in 6.0 mi Calm Calm - N/A   Clear
5:55 AM 33.6 °F 30.6 °F 89% 30.22 in 6.0 mi Calm Calm - N/A   Clear
6:42 AM 32.0 °F 30.2 °F 93% 30.23 in 3.0 mi Calm Calm - N/A   Clear
6:55 AM 31.3 °F 29.7 °F 94% 30.23 in 4.0 mi Calm Calm - N/A   Clear
7:22 AM 32.0 °F 30.2 °F 93% 30.23 in 4.0 mi Calm Calm - N/A   Partly Cloudy
7:55 AM 32.5 °F 29.7 °F 89% 30.23 in 6.0 mi Calm Calm - N/A   Partly Cloudy
8:55 AM 39.6 °F 34.9 °F 83% 30.23 in 7.0 mi Calm Calm - N/A   Clear
9:55 AM 47.5 °F 38.5 °F 71% 30.22 in 10.0 mi Calm Calm - N/A   Partly Cloudy
10:55 AM 55.0 °F 40.6 °F 58% 30.21 in 10.0 mi SSE 3.5 mph - N/A   Partly Cloudy
11:55 AM 60.8 °F 40.3 °F 47% 30.17 in 10.0 mi South 11.5 mph - N/A   Scattered Clouds
12:55 PM 62.2 °F 39.4 °F 43% 30.14 in 10.0 mi SSW 16.1 mph 24.2 mph N/A   Partly Cloudy
1:55 PM 62.4 °F 40.5 °F 44% 30.12 in 10.0 mi South 15.0 mph - N/A   Partly Cloudy
2:00 PM 62.6 °F 41.0 °F 45% 30.11 in 10.0 mi SSW 12.7 mph - N/A   Partly Cloudy
2:55 PM 63.1 °F 40.1 °F 43% 30.09 in 10.0 mi South 13.8 mph - N/A   Mostly Cloudy
3:55 PM 60.8 °F 39.9 °F 46% 30.09 in 10.0 mi South 15.0 mph - N/A   Mostly Cloudy
4:55 PM 58.1 °F 40.3 °F 52% 30.08 in 10.0 mi South 8.1 mph - N/A   Mostly Cloudy
5:55 PM 55.2 °F 39.6 °F 56% 30.06 in 10.0 mi SSE 6.9 mph - N/A   Scattered Clouds
6:55 PM 55.0 °F 40.5 °F 58% 30.06 in 10.0 mi SSE 5.8 mph - N/A   Mostly Cloudy
8:55 PM 52.9 °F 39.7 °F 61% 30.04 in 10.0 mi SE 5.8 mph - N/A   Overcast
9:55 PM 50.2 °F 39.9 °F 68% 30.03 in 10.0 mi South 8.1 mph - N/A   Scattered Clouds
10:55 PM 51.3 °F 40.6 °F 67% 30.00 in 10.0 mi South 11.5 mph - N/A   Clear
11:55 PM 52.5 °F 41.5 °F 66% 29.99 in 10.0 mi South 12.7 mph - N/A   Partly Cloudy